Regional Weather Roundup
Issued by NWS San Diego, CA

Home | Current Version | Previous Version | Text Only | Print | Product List | Glossary On
Versions: 1 2 3 4 5 6 7 8 9 10 11 12 13 14 15 16 17 18 19 20 21 22 23 24 25 26 27 28 29 30 31 32 33 34 35 36 37 38 39 40 41 42 43 44 45 46 47 48 49 50
000
ASUS46 KSGX 281611
RWRSGX

SAN DIEGO HOURLY WEATHER ROUNDUP
NATIONAL WEATHER SERVICE SAN DIEGO CA
900 AM PDT THU MAY 28 2015

NOTE: "FAIR" INDICATES FEW OR NO CLOUDS BELOW 12,000 FEET WITH NO
SIGNIFICANT WEATHER AND/OR OBSTRUCTIONS TO VISIBILITY.

CAZ042-043-060-061-PZZ750-775-281700-

GREATER SAN DIEGO AREA

CITY           SKY/WX    TMP DP  RH WIND       PRES   REMARKS
LINDBERGH FLD  CLOUDY    63  55  75 NE3       30.02R
POINT LOMA       N/A     62  57  83 NW6         N/A
NATIONAL CITY    N/A     63  58  83 N3        30.01R
CHULA VISTA      N/A     62  58  84 N2        29.94R
BROWN FIELD    CLOUDY    61  55  81 N6        30.00R
MONTGOMERY FLD CLOUDY    61  56  83 NW6       30.01R

$$

NORTH SAN DIEGO COUNTY

CITY           SKY/WX    TMP DP  RH WIND       PRES   REMARKS
OCEANSIDE AP   CLOUDY    64  55  72 NE3       29.99S
OCEANSIDE HBR    N/A     63  58  84 N2        30.03R
VISTA            N/A     60  55  83 CALM      29.99R
CARLSBAD       CLOUDY    61  56  83 CALM      29.99S
DEL MAR          N/A     62  58  88 CALM      30.02S
LA JOLLA SCRIP   N/A    N/A N/A N/A N3        29.98S
FALLBROOK        N/A     59  59 100 CALM      30.01S
ESCONDIDO        N/A     60  57  89 CALM      30.02R
SAN MARCOS       N/A     60  56  87 CALM      29.99R
POWAY            N/A     60  55  84 NW3       30.02R

$$

EAST SAN DIEGO COUNTY

CITY           SKY/WX    TMP DP  RH WIND       PRES   REMARKS
RAMONA         CLOUDY    55  53  93 CALM      30.01R FOG
SANTEE LAKES     N/A     60  56  85 CALM      30.00S
LA MESA          N/A     60  56  85 N3        29.94S
JAMUL            N/A     58  55  91 CALM      29.99S
DESCANSO N       N/A     71  49  45 CALM      29.86S
MT. LAGUNA OBS   N/A     66  32  28 W5        29.72R

$$

ORANGE COUNTY AND THE LOS ANGELES BASIN

CITY           SKY/WX    TMP DP  RH WIND       PRES   REMARKS
JOHN WAYNE AP  CLOUDY    62  54  74 SW3       30.00S
LAKE FOREST FR   N/A     57  52  83 CALM      29.91
SANTA ANA        N/A     63  57  81 CALM      29.95F
HUNTINGTON BCH   N/A     62  57  84 CALM      30.02S
LOS ALAMITOS   CLOUDY    62  55  79 NE2       30.00S
FULLERTON      CLOUDY    63  53  70 CALM      29.99F
LONG BEACH     CLOUDY    62  54  74 CALM      30.00S
L.A. AP        CLOUDY    60  55  83 S5        30.01R
L.A. DOWNTOWN  CLOUDY    62  55  77 CALM      30.00S HAZE

$$

THE INLAND EMPIRE

CITY           SKY/WX    TMP DP  RH WIND       PRES   REMARKS
CHINO          CLOUDY    59  55  87 CALM      30.02S FOG
ONTARIO        PTSUNNY   59  53  80 S5        30.00S HAZE
SAN BERNARDINO PTSUNNY   59  50  72 CALM      30.01R HAZE
RIVERSIDE AP   CLOUDY    59  54  83 CALM      30.01S HAZE
RIV CYN CREST    N/A     58  58 100 NW1         N/A
MORENO VALLEY    N/A     62  59  91 SW1       30.00R
MARCH ARB      MOSUNNY   60  55  84 VRB5      30.00S
HORSETHIEF CYN   N/A     60  52  75 N3        29.97S
PERRIS           N/A     56  55  97 SE2         N/A
MENIFEE          N/A     58  57  96 CALM      30.07R
HEMET EAST       N/A     58  52  79 CALM      29.95S
FRENCH VALLEY  CLOUDY    57  54  88 CALM      30.01S
TEMECULA         N/A     59  57  92 S1        29.97R

$$

SAN BERNARDINO AND RIVERSIDE COUNTY MOUNTAINS

CITY           SKY/WX    TMP DP  RH WIND       PRES   REMARKS
BIG BEAR AP    SUNNY     61  28  29 CALM      30.21S
ANGELUS OAKS     N/A     64  35  34 CALM      29.87S
PINE COVE        N/A     64  34  33 W1        29.92R

$$

SOUTHERN DESERT INCLUDING THE COACHELLA VALLEY

CITY           SKY/WX    TMP DP  RH WIND       PRES   REMARKS
PALM SPRINGS   SUNNY     82  50  32 CALM      29.91S
PALM DESERT      N/A     82  54  38 CALM        N/A
THERMAL        SUNNY     83  50  31 CALM      29.87R
BLYTHE           N/A     82  44  26 S5        29.90R
IMPERIAL AP    SUNNY     77  58  51 E5        29.87S
MEXICALI       SUNNY     75  59  57 SE9       29.89R

$$

UPPER DESERT

CITY           SKY/WX    TMP DP  RH WIND       PRES   REMARKS
VICTORVILLE AP SUNNY     72  34  25 CALM      30.02F
HESPERIA         N/A     74  39  29 SW2       30.04S
APPLE VALLEY     N/A     72  38  29 CALM      30.04F
PALMDALE       SUNNY     76  36  23 VRB3      30.01R
LANCASTER      SUNNY     77  35  21 CALM      29.99S
EDWARDS AFB    MOSUNNY   74  39  28 SE3       29.97S
DAGGETT        SUNNY     79  38  22 W14       29.96S
NEEDLES        SUNNY     84  31  14 CALM      29.92R

$$

REGIONAL REPORTS

CITY           SKY/WX    TMP DP  RH WIND       PRES   REMARKS
SANTA BARBARA  CLOUDY    60  54  80 SE7       30.00R
SANDBERG       SUNNY     68  35  29 N16       30.10R
LAS VEGAS NV   SUNNY     81  31  16 S6        29.94R
PHOENIX AZ     SUNNY     83  38  20 VRB5      29.93R
TIJUANA        CLOUDY    64  52  63 N7        30.03R FOG
ENSENADA NW      N/A     60  32  34 NW7       29.98R

$$

OFFSHORE ISLANDS

CITY           SKY/WX    TMP DP  RH WIND       PRES   REMARKS
CATALINA ARPT  FOG       54  53  97 S3        30.02R VSB 1/4
SAN CLEMENTE I CLOUDY    54  53  97 W10       30.03S

$$

MARINE AND OFFSHORE BUOY REPORTS

STATION/POSITION SKY/WX   TEMP    WIND        PRES    SWELL
                          AIR SEA DIR/SP/G            HT/PER/DIR
                          (F)     (DEG/KT/KT) (MB)    (FT/S/D)
TANNER BANKS               58 60  320/ 14/ 17 1016.8R   5/280/15
S CLEMENTE BASIN           59 63  270/  6/ 10 1016.3R   3/230/16
SAN NICOLAS IS.               60                N/A     3/220/17
SO. S. ROSA ISLA           55 59  320/ 19/ 21 1015.8R   3/14
W. S. BARBARA CH           54 55  320/ 19/ 23 1015.6R   5/260/15
M. S. BARBARA CH           57 59   40/  2/  6 1016.0R
S. MONICA BASIN            58 62  120/  2/  4 1016.3R   3/220/15
S PEDRO CHANNEL               62                N/A     2/180/15
DANA POINT                    62                N/A     3/210/15
OCEANSIDE OFFSHR              65                N/A     3/210/14
TORREY PINES OTR              65                N/A     3/230/15
LA JOLLA 1                 62 65  330/  1/  3 1015.6R
MISSION BAY BUOY              65                N/A     3/230/17
SAN DIEGO BAY                 65              1016.1R
POINT LOMA SOUTH              64                N/A     3/210/14

$$



USA.gov is the U.S. government's official web portal to all federal, state and local government web resources and services.